Location: Brachbach
(49.1847°N, 9.7240°E)
Time: 23:38:31
(UTC+00:00)

FENGYUN 3A - Pass Details

Date: 22 August 2024
Orbit: 822 x 834 km, 98.6° (Epoch: 07 September)

Event Time Altitude Azimuth Distance (km) Brightness Sun altitude
Rises 01:07:01 0° 20° (NNE) 3,391 8.2 -25.1°
Reaches altitude 10° 01:09:32 10° 27° (NNE) 2,451 7.2 -24.9°
Maximum altitude 01:14:39 41° 97° (E) 1,192 4.6 -24.5°
Enters shadow 01:16:35 30° 142° (SE) 1,440 4.7 -24.3°
